Wind_Speed
11 12 12 12 13 13 13 12 12 11 11 11 12 14 16 19 21 24 25 25 27 28 30 33 35 36 36 34 31 28 27 28 31 34 39 42 45 47 49 51 51 51 52 52
11 11 12 13 13 12 12 12 11 11 10 10 11 13 16 19 21 22 23 24 25 25 27 29 32 33 32 28 24 21 18 18 20 23 27 30 33 35 37 39 41 42 44 45
12 12 13 13 13 12 12 12 12 11 10 9 10 12 15 18 20 21 22 22 23 23 23 25 27 29 28 24 20 16 13 11 12 15 19 20 22 24 27 29 31 33 35 37
13 13 14 13 13 13 13 13 13 12 10 9 10 12 14 17 19 21 20 21 21 21 21 23 24 24 24 22 18 14 10 6 5 7 10 14 17 18 20 22 24 26 29 33
15 15 14 14 14 14 15 15 14 12 10 9 10 12 15 17 19 20 19 19 19 19 19 20 20 20 20 19 17 16 11 6 3 3 7 9 12 15 17 19 21 23 25 27
16 15 16 15 15 16 16 15 14 12 10 9 10 13 15 17 18 18 19 18 18 18 16 17 17 18 17 17 17 17 15 12 9 9 7 7 8 10 13 15 16 18 21 24
17 16 16 16 16 17 17 15 14 12 11 11 11 13 15 16 17 17 18 18 17 16 15 14 14 15 15 14 15 15 15 13 11 8 6 6 6 6 7 10 12 15 19 22
18 18 17 17 17 17 17 16 14 13 12 12 13 14 14 15 16 16 16 16 15 14 14 13 12 12 12 13 14 14 14 12 9 7 5 4 2 1 2 5 8 11 14 17
19 19 18 18 18 18 17 16 16 15 14 14 14 14 14 15 15 15 14 14 13 13 12 12 11 11 11 11 12 12 12 13 12 10 8 6 5 4 4 6 9 12 15 18
20 20 20 20 19 19 18 17 17 16 16 15 15 14 14 14 14 13 13 13 12 12 11 10 10 10 11 11 11 11 11 11 10 10 9 8 8 8 9 11 14 16 19 22
21 21 21 21 21 20 20 19 19 18 18 17 17 16 15 15 14 13 13 12 12 11 10 9 9 9 9 10 10 10 11 11 11 11 11 11 11 12 14 15 17 19 21 23
21 22 22 22 24 23 23 22 21 20 19 19 18 17 17 16 15 14 14 13 12 11 10 9 9 9 9 10 11 11 12 12 13 13 13 14 15 16 17 18 20 21 23 26
22 23 23 24 25 25 24 24 22 21 21 20 20 19 18 17 16 16 15 14 13 12 11 10 9 9 10 11 12 13 14 14 15 15 16 16 18 19 20 21 23 24 26 29
22 22 23 24 25 26 26 25 25 23 22 22 22 21 20 19 18 17 17 15 14 13 12 12 11 11 11 12 13 14 15 16 17 17 18 19 20 21 22 24 25 27 29 32
22 22 23 24 25 26 27 27 26 25 24 24 23 23 22 21 20 19 18 17 16 15 14 13 13 13 13 14 15 16 17 18 19 19 20 21 22 24 25 26 28 30 33 36
22 23 23 24 25 26 27 27 27 27 26 25 24 23 22 21 20 19 18 18 17 16 15 15 15 15 16 16 17 18 19 20 21 22 22 24 25 26 28 29 31 33 36 38
21 22 23 23 24 26 27 28 27 27 27 26 25 24 23 22 21 20 19 18 17 17 17 16 16 17 17 18 18 20 21 22 23 23 25 26 27 29 31 32 34 36 38 40
21 22 23 23 24 25 26 27 27 27 27 27 26 25 24 22 21 20 19 19 18 18 18 18 18 18 18 19 20 21 22 23 24 26 27 28 30 31 33 34 36 37 40 42
20 20 21 22 23 24 25 26 26 26 26 26 26 25 24 23 22 21 20 20 19 19 18 18 19 19 20 21 22 23 24 25 26 28 29 31 32 34 35 36 37 38 41 43
19 19 19 20 21 22 22 23 24 25 25 25 25 24 24 24 23 22 21 21 21 20 20 20 20 21 21 22 23 24 25 26 28 29 31 32 34 35 36 37 38 40 42 44
16 17 17 18 18 19 20 21 22 23 23 24 24 24 24 24 23 23 22 22 22 22 21 22 22 22 23 23 24 25 26 27 29 31 32 34 35 36 37 37 39 41 43 45
13 14 14 15 16 17 18 19 20 21 21 22 23 23 23 24 23 23 23 23 23 23 22 22 22 23 24 24 25 26 27 29 30 32 33 34 35 36 37 38 40 42 44 46
12 12 12 13 14 15 16 17 18 19 20 21 21 22 23 23 23 24 24 24 24 23 22 22 23 24 24 25 26 27 28 30 31 33 34 35 36 36 37 39 41 43 45 47
14 14 14 15 15 15 16 16 17 18 19 20 20 21 22 22 23 24 24 24 24 23 23 24 24 25 25 26 27 28 29 31 32 33 35 35 36 36 38 40 42 44 46 48
19 19 19 19 19 19 19 19 19 19 19 19 20 20 21 22 23 23 23 23 23 24 24 25 26 27 27 28 29 30 31 32 33 34 35 35 36 37 38 41 43 45 47 49
22 22 22 23 23 23 22 22 22 22 21 22 22 22 22 22 23 23 24 24 24 25 26 27 27 28 29 29 30 31 31 32 33 34 34 35 36 37 39 42 44 46 47 49
25 25 25 25 24 24 25 25 25 25 24 24 24 25 25 26 26 26 26 26 26 27 27 28 28 29 29 29 30 31 32 32 33 34 34 35 36 38 40 43 44 46 48 49
Wind_Direction
200 206 216 227 234 240 244 246 245 243 252 269 283 292 299 305 309 312 314 316 317 318 320 321 323 323 321 316 309 297 282 269 259 252 247 245 245 244 243 242 243 244 245 246
214 220 230 238 243 243 244 238 229 232 245 265 281 296 305 312 317 320 322 323 324 325 326 329 333 334 332 330 322 312 297 278 262 252 247 243 242 241 241 240 241 242 243 245
229 235 240 245 245 244 235 222 221 229 244 264 287 304 315 322 325 327 328 329 330 330 332 335 340 343 345 345 341 332 314 287 266 252 241 235 231 230 231 233 235 239 240 241
239 243 245 242 240 234 224 220 221 230 243 266 290 308 322 328 332 334 333 334 335 337 338 342 345 348 352 356 359 357 349 327 277 243 224 214 214 218 222 223 228 232 234 237
243 244 243 238 232 224 219 222 225 234 249 273 298 314 324 331 335 336 337 339 340 341 343 347 352 357 1 8 15 20 23 31 62 159 186 189 193 197 203 209 218 224 231 236
243 240 237 231 226 221 222 226 229 241 259 280 299 315 323 329 335 337 338 340 342 344 345 350 358 4 9 18 28 33 40 51 68 83 104 136 167 186 198 210 218 225 234 242
240 237 234 228 223 221 225 229 236 248 265 284 297 310 320 326 332 336 338 341 343 346 347 349 357 7 17 27 30 31 37 50 63 76 94 126 152 177 200 217 231 240 246 252
239 236 232 227 224 225 228 233 241 253 267 282 294 304 314 322 328 332 335 339 344 348 352 356 1 10 21 28 28 30 34 41 50 55 61 85 119 275 265 259 260 265 269 273
237 236 232 230 228 229 232 238 244 254 267 278 289 299 308 317 323 327 330 334 340 346 352 1 9 14 17 21 25 29 33 39 45 46 45 41 24 356 327 307 298 295 295 295
237 236 234 232 232 232 235 241 247 257 266 276 283 291 301 309 316 321 325 326 329 334 341 348 357 4 12 18 23 25 26 28 28 26 20 11 357 340 325 315 311 307 304 302
238 239 239 238 237 237 239 244 250 258 265 272 278 282 290 299 305 312 317 319 320 323 327 334 344 352 358 3 6 8 8 6 4 359 353 346 339 331 323 317 313 309 307 306
240 240 241 242 240 238 240 244 250 257 263 269 273 276 281 287 295 302 308 309 309 310 313 317 324 331 337 342 345 347 348 347 346 343 339 334 329 324 320 317 314 312 311 311
242 241 242 243 243 242 243 246 251 257 262 266 269 273 275 279 285 293 300 302 299 300 302 305 311 316 322 328 332 335 336 336 334 332 329 325 323 320 318 317 315 314 314 314
244 243 244 245 246 245 246 249 251 255 259 263 266 269 271 273 278 286 292 295 293 292 294 296 300 305 312 318 322 326 326 326 326 324 322 321 320 319 318 317 317 317 317 318
249 247 247 248 249 248 248 250 252 254 258 261 264 267 268 270 274 279 286 289 288 287 287 290 293 298 305 310 315 319 320 321 321 320 319 319 319 319 319 319 319 319 320 321
255 253 251 252 252 251 250 251 252 254 256 259 262 265 266 268 271 274 279 284 285 284 284 285 288 292 299 305 310 314 316 317 317 317 317 318 319 320 320 320 321 321 321 322
258 258 256 256 255 255 253 253 253 254 257 259 261 263 264 265 267 270 274 279 282 282 282 283 286 290 295 301 306 310 312 313 314 315 317 318 319 320 320 320 321 321 322 323
260 261 260 259 258 257 256 255 255 256 257 259 259 260 260 262 265 267 271 275 280 282 281 281 282 287 292 298 303 307 309 311 313 315 316 317 318 319 319 320 321 322 323 324
262 262 261 260 259 258 257 255 255 256 256 257 257 257 257 259 262 266 269 274 278 280 280 280 282 286 291 295 300 305 308 310 312 314 315 316 317 318 319 320 321 322 324 326
263 263 261 260 259 258 257 255 254 254 255 255 255 255 255 256 259 263 268 272 275 276 278 280 282 285 289 294 299 303 306 309 311 313 314 316 317 319 320 321 322 323 325 326
266 265 262 260 259 258 256 255 254 254 254 255 254 254 255 256 258 261 266 270 272 274 278 280 281 284 289 294 298 302 305 308 310 312 314 316 318 319 320 321 322 324 326 327
264 264 262 260 259 258 257 257 255 255 255 254 254 254 254 256 257 259 263 268 271 274 277 279 281 285 289 294 298 301 305 307 310 312 314 316 318 319 320 321 323 325 327 328
263 265 267 267 266 265 262 259 257 256 255 255 255 254 254 256 257 258 262 267 270 272 274 277 281 285 290 295 298 302 305 308 311 313 315 316 317 318 320 322 324 325 327 328
269 270 271 272 272 271 269 264 262 261 259 257 256 255 255 256 257 259 261 264 266 268 272 277 281 285 290 295 299 302 306 308 310 313 315 316 317 318 320 322 324 326 327 329
272 271 272 272 273 272 271 268 266 265 264 262 260 258 257 257 258 259 261 263 265 268 272 276 281 285 290 295 298 302 305 308 310 312 314 315 317 319 321 322 324 326 328 329
272 272 272 272 271 271 271 269 267 265 263 262 260 259 258 258 258 258 259 261 264 268 272 276 280 285 290 294 297 300 303 307 309 311 313 315 317 319 321 323 325 326 328 329
271 272 273 273 273 272 271 269 268 266 264 263 262 261 260 260 260 260 261 262 264 268 272 276 280 284 288 292 296 299 302 305 308 311 313 315 317 319 321 323 325 326 328 329
Height
5641 5644 5646 5648 5650 5652 5654 5656 5658 5659 5660 5660 5660 5660 5658 5655 5652 5648 5643 5638 5632 5627 5620 5613 5604 5594 5584 5574 5565 5558 5553 5552 5554 5557 5561 5566 5572 5579 5586 5593 5601 5608 5615 5621
5639 5641 5643 5645 5647 5649 5650 5652 5654 5655 5657 5657 5657 5655 5653 5650 5646 5641 5637 5631 5626 5621 5614 5608 5600 5590 5580 5570 5562 5555 5550 5548 5549 5551 5554 5559 5565 5571 5578 5585 5592 5599 5606 5612
5637 5639 5640 5643 5644 5645 5647 5649 5651 5652 5654 5654 5652 5650 5648 5644 5640 5636 5631 5626 5621 5616 5610 5604 5597 5588 5579 5570 5562 5555 5551 5548 5548 5549 5552 5556 5560 5566 5572 5579 5586 5593 5599 5605
5634 5637 5638 5642 5641 5642 5644 5646 5648 5649 5650 5650 5648 5646 5643 5640 5636 5632 5627 5623 5618 5612 5607 5602 5595 5588 5580 5572 5565 5559 5554 5551 5549 5550 5551 5554 5559 5564 5569 5575 5582 5588 5594 5599
5631 5633 5634 5637 5638 5639 5641 5643 5644 5645 5646 5645 5644 5642 5639 5636 5632 5628 5624 5620 5615 5610 5606 5601 5595 5589 5583 5576 5569 5563 5558 5555 5554 5553 5554 5556 5560 5564 5569 5575 5580 5585 5590 5595
5627 5629 5631 5634 5634 5635 5639 5639 5641 5641 5641 5641 5640 5638 5636 5633 5629 5625 5622 5617 5613 5609 5605 5600 5596 5591 5585 5580 5574 5569 5565 5561 5560 5559 5560 5562 5565 5568 5572 5577 5581 5585 5589 5592
5623 5625 5627 5629 5631 5633 5636 5637 5637 5637 5637 5637 5636 5635 5633 5629 5626 5623 5619 5616 5612 5608 5604 5600 5597 5592 5588 5584 5580 5576 5572 5569 5568 5567 5567 5568 5570 5573 5575 5578 5581 5583 5586 5588
5619 5621 5625 5625 5627 5629 5631 5632 5633 5633 5633 5633 5632 5631 5629 5626 5624 5620 5617 5614 5611 5608 5604 5601 5597 5594 5591 5587 5584 5581 5578 5575 5574 5573 5573 5574 5575 5576 5577 5579 5581 5582 5584 5584
5616 5619 5620 5621 5622 5625 5626 5628 5629 5629 5629 5629 5628 5627 5625 5623 5621 5618 5616 5613 5610 5607 5604 5602 5598 5595 5593 5590 5587 5584 5582 5580 5578 5578 5577 5577 5577 5578 5578 5579 5580 5580 5580 5579
5611 5612 5614 5616 5618 5620 5622 5623 5624 5625 5625 5625 5624 5623 5622 5620 5618 5616 5614 5611 5609 5607 5604 5602 5599 5596 5594 5591 5589 5587 5585 5583 5581 5580 5579 5579 5579 5578 5578 5578 5577 5576 5575 5574
5606 5608 5609 5612 5614 5616 5617 5618 5620 5620 5621 5620 5620 5619 5618 5617 5615 5614 5612 5609 5607 5605 5603 5601 5599 5597 5594 5592 5590 5588 5586 5584 5583 5581 5580 5579 5578 5577 5576 5575 5573 5572 5570 5568
5601 5603 5605 5606 5607 5609 5611 5613 5614 5615 5615 5615 5615 5615 5614 5613 5612 5610 5609 5607 5605 5603 5601 5600 5598 5596 5594 5592 5590 5588 5586 5584 5582 5580 5579 5578 5576 5575 5573 5571 5569 5567 5564 5561
5595 5597 5599 5600 5601 5603 5605 5607 5608 5609 5610 5610 5610 5610 5609 5609 5608 5606 5605 5603 5602 5600 5599 5597 5596 5594 5593 5591 5589 5587 5585 5583 5581 5579 5577 5575 5573 5571 5569 5566 5563 5560 5557 5553
5589 5591 5593 5594 5596 5597 5599 5601 5602 5603 5604 5604 5604 5604 5604 5603 5603 5602 5601 5600 5598 5597 5596 5595 5593 5592 5590 5589 5587 5585 5583 5581 5579 5577 5574 5572 5569 5567 5564 5561 5558 5554 5550 5545
5583 5585 5587 5588 5589 5590 5592 5594 5595 5596 5597 5598 5598 5598 5598 5598 5598 5597 5596 5595 5594 5593 5592 5591 5590 5589 5587 5586 5584 5582 5580 5578 5575 5573 5570 5568 5565 5562 5558 5555 5551 5546 5542 5536
5576 5578 5580 5581 5582 5583 5585 5587 5588 5589 5590 5591 5591 5592 5592 5592 5592 5592 5591 5591 5590 5589 5588 5587 5586 5585 5584 5582 5580 5578 5576 5574 5571 5569 5566 5563 5559 5556 5552 5547 5543 5538 5533 5528
5570 5571 5573 5574 5575 5576 5578 5579 5581 5582 5583 5584 5585 5585 5585 5586 5586 5586 5586 5586 5585 5584 5583 5582 5581 5580 5579 5578 5576 5574 5572 5569 5567 5564 5560 5557 5553 5549 5545 5540 5536 5530 5525 5519
5564 5565 5566 5567 5568 5569 5570 5572 5573 5574 5576 5577 5578 5578 5579 5580 5580 5581 5581 5580 5580 5579 5578 5577 5576 5575 5574 5573 5571 5569 5567 5564 5561 5558 5554 5550 5546 5542 5538 5533 5528 5522 5516 5510
5558 5558 5559 5560 5561 5562 5563 5564 5565 5567 5568 5569 5570 5571 5572 5573 5574 5574 5574 5574 5574 5573 5573 5572 5571 5570 5569 5567 5566 5563 5561 5558 5555 5552 5548 5544 5540 5535 5530 5525 5520 5514 5508 5501
5552 5552 5552 5553 5554 5555 5556 5557 5558 5559 5560 5561 5563 5564 5565 5566 5567 5568 5568 5568 5568 5568 5567 5566 5565 5564 5563 5562 5560 5558 5555 5552 5549 5545 5541 5537 5533 5528 5523 5517 5512 5506 5499 5493
5546 5546 5547 5547 5548 5548 5549 5550 5551 5552 5553 5554 5556 5557 5558 5559 5560 5561 5561 5562 5562 5561 5561 5560 5559 5558 5557 5555 5554 5551 5549 5546 5542 5539 5534 5530 5525 5520 5515 5509 5504 5498 5491 5484
5541 5541 5541 5542 5542 5542 5543 5544 5545 5546 5547 5548 5549 5550 5551 5552 5553 5554 5555 5555 5555 5555 5554 5554 5553 5552 5551 5549 5547 5545 5542 5539 5535 5531 5527 5522 5517 5512 5507 5501 5496 5489 5483 5476
5537 5537 5537 5537 5537 5537 5538 5538 5539 5540 5540 5541 5542 5543 5544 5545 5546 5547 5548 5548 5548 5548 5548 5547 5546 5545 5544 5542 5540 5537 5535 5531 5528 5524 5519 5515 5510 5504 5499 5494 5488 5481 5475 5467
5532 5532 5532 5532 5532 5533 5533 5533 5533 5534 5534 5535 5536 5536 5537 5538 5539 5540 5541 5541 5541 5541 5541 5540 5539 5538 5536 5535 5532 5530 5527 5524 5520 5516 5511 5507 5502 5497 5491 5486 5480 5473 5466 5459
5527 5527 5527 5527 5527 5527 5527 5527 5527 5528 5528 5529 5529 5530 5531 5531 5532 5533 5533 5534 5534 5534 5533 5533 5532 5530 5529 5527 5525 5522 5519 5516 5512 5508 5504 5499 5494 5489 5484 5478 5472 5465 5458 5450
5520 5520 5520 5520 5520 5520 5520 5521 5521 5521 5522 5522 5522 5523 5524 5524 5525 5525 5526 5526 5526 5526 5525 5525 5524 5522 5521 5519 5517 5514 5511 5508 5504 5500 5496 5491 5487 5482 5476 5470 5464 5457 5450 5442
5512 5512 5512 5512 5512 5512 5513 5513 5513 5514 5514 5515 5515 5516 5516 5517 5517 5517 5518 5518 5518 5518 5517 5517 5516 5515 5513 5511 5509 5506 5504 5500 5496 5492 5488 5484 5479 5474 5469 5463 5456 5449 5441 5433